Helicity
63 71 64 34 30 37 41 42 29 44 56 57 75 74 94 90 113 86 125 174 50 95 112 96 124 165 245 273 179 201 169 67 79 159 119 56 96 106 134 109 78 57 77 109 82
41 27 23 34 36 34 37 33 43 49 53 52 79 75 118 91 105 164 27 74 106 60 103 91 118 140 214 210 226 193 180 75 41 34 82 51 102 101 91 104 151 100 58 77 67
9 19 27 30 36 28 37 33 40 48 39 55 88 74 81 114 140 123 68 18 56 81 92 63 78 112 161 184 243 215 132 48 -8 36 108 84 119 127 99 105 82 75 26 35 80
29 35 32 42 34 26 32 38 40 47 26 34 54 82 84 182 173 236 -9 -36 53 47 86 142 94 135 157 169 150 233 52 129 103 28 51 206 93 39 96 91 158 174 255 109 64
37 2 8 22 12 22 30 28 28 33 20 14 -26 13 100 110 96 94 127 -18 83 74 102 121 98 126 122 110 138 130 179 66 127 59 112 113 188 133 81 77 125 174 211 165 125
9 5 17 26 14 17 15 7 12 3 10 2 1 -8 22 125 87 38 84 45 96 54 77 87 117 123 176 90 132 92 193 305 170 114 127 163 134 122 76 82 69 82 106 92 102
10 3 33 16 4 10 14 10 8 2 5 2 2 -2 15 -19 93 27 88 263 38 5 81 111 98 125 189 183 152 164 169 223 238 111 69 118 122 106 80 127 83 55 61 74 77
29 48 40 40 29 33 34 10 -8 -7 -6 -4 -11 -16 27 -17 10 74 46 183 257 134 71 72 73 104 165 145 174 187 168 182 167 110 97 25 85 43 71 89 102 77 72 76 60
33 37 44 25 21 31 21 -8 -6 4 -16 -13 -5 -8 33 -6 13 50 0 195 254 42 73 81 102 162 147 188 188 161 126 155 112 105 140 88 29 41 84 76 74 67 60 70 65
32 34 45 34 5 -2 7 1 4 10 -13 -4 15 35 21 59 29 56 15 128 201 39 26 71 128 174 192 210 164 107 90 80 107 121 117 111 64 148 115 106 66 104 127 108 83
23 -12 22 51 58 0 24 34 9 -2 -18 -12 9 57 73 153 22 18 22 117 116 132 188 104 134 72 104 80 115 79 65 127 63 95 101 79 77 68 106 88 73 84 83 80 87
13 18 -11 3 15 -1 37 20 25 39 56 14 19 41 56 139 83 -53 34 98 130 123 169 183 86 98 100 102 124 104 144 78 133 123 102 115 71 82 76 90 66 59 72 75 88
15 26 23 -17 11 38 65 26 -10 36 90 70 59 94 101 87 -15 112 111 102 171 131 126 160 176 66 57 74 107 164 179 119 182 162 112 146 74 72 94 85 68 105 113 135 149
-1 21 62 44 63 105 125 116 81 95 170 82 80 68 44 83 25 51 95 220 182 111 95 84 131 152 151 93 94 160 138 162 168 139 106 101 88 52 63 89 127 105 62 63 158
0 9 21 79 58 92 145 68 80 46 80 61 37 7 48 40 45 99 57 138 138 162 208 158 112 163 152 114 151 159 161 217 182 143 189 121 113 75 178 115 94 89 137 169 183
20 36 49 51 71 136 112 53 68 97 147 53 75 113 21 64 65 120 69 191 298 291 185 170 215 100 133 139 124 156 241 164 123 123 120 115 86 78 108 96 101 142 109 107 97
34 39 93 63 44 98 33 22 58 88 41 84 62 47 65 76 58 84 -2 103 97 85 176 141 229 223 184 146 44 137 160 170 163 150 116 168 117 56 87 77 125 116 109 115 108
69 26 96 80 18 31 -24 26 21 23 13 83 42 4 53 29 56 29 -31 96 124 125 168 52 158 223 182 238 227 158 125 169 144 106 103 157 131 162 207 134 91 62 175 122 86
69 71 71 76 22 -44 -17 12 -7 -3 22 44 36 19 30 25 29 27 10 49 107 138 120 77 107 118 152 275 233 188 153 120 181 147 141 111 122 154 191 266 272 183 121 96 114
4 26 30 120 30 -57 -13 -17 -25 -17 32 101 34 30 8 17 71 58 3 52 27 61 195 111 120 85 147 224 240 224 220 142 176 165 117 78 66 101 138 156 172 162 117 101 88
6 10 29 28 0 -16 11 21 -15 -15 7 19 31 34 31 6 27 14 29 7 26 19 67 114 89 54 50 86 169 149 159 134 181 172 168 109 100 111 103 114 129 119 111 106 93
29 17 30 20 7 1 17 12 22 -15 -10 8 14 44 43 29 35 24 30 50 39 21 23 57 76 91 66 66 90 124 103 147 117 139 162 140 135 61 97 122 140 123 83 70 73
51 29 22 -13 25 23 24 17 36 6 -1 4 13 16 18 22 36 69 61 45 58 107 83 43 52 89 77 54 42 35 56 85 175 138 77 92 85 98 102 131 88 64 50 55 70
59 60 52 27 25 50 15 26 13 17 9 15 25 21 12 20 29 34 52 41 50 60 86 97 72 76 89 65 78 87 60 45 111 112 117 105 146 141 129 52 48 50 57 70 67
64 61 69 75 77 89 56 57 17 5 -1 -6 -10 -15 13 18 22 20 59 51 52 49 48 81 60 74 87 73 80 64 70 74 118 111 125 91 116 85 68 77 69 67 72 42 51
65 68 80 82 78 66 49 45 58 40 24 14 7 15 29 79 53 42 38 30 38 59 53 61 46 63 52 36 39 47 49 50 62 63 35 98 114 229 135 104 78 73 60 37 49
49 38 59 91 117 120 121 110 103 52 21 21 19 19 15 62 74 77 82 52 42 43 46 60 62 56 58 47 26 32 28 51 75 79 56 36 39 108 112 123 105 69 37 43 48
Wind_Speed
75 76 73 73 72 71 68 68 68 68 68 67 63 61 57 54 61 69 78 62 63 41 44 45 50 50 50 60 53 61 74 91 87 80 71 48 45 44 42 50 36 34 26 18 13
72 74 75 70 69 64 60 60 61 60 55 53 51 53 57 56 66 84 72 60 59 45 47 53 56 50 53 58 59 72 80 81 85 81 77 57 51 43 46 53 49 36 25 19 21
77 73 66 59 55 50 48 52 51 49 42 45 44 48 53 54 76 99 76 63 57 58 53 51 48 51 58 53 63 80 91 86 86 73 56 55 48 48 52 56 55 47 32 28 28
78 69 62 54 43 46 48 42 46 41 44 38 40 47 47 49 73 50 59 60 55 47 45 51 54 60 58 66 65 75 93 86 76 59 53 62 46 50 54 45 45 36 29 29 34
78 66 56 43 36 38 38 30 37 34 37 34 37 38 38 48 64 37 40 53 54 55 55 51 54 59 65 65 58 85 75 69 74 46 48 56 54 52 49 53 38 34 36 39 41
79 61 47 35 27 18 31 32 31 30 31 34 35 38 41 51 43 32 35 52 52 56 58 51 56 50 58 49 66 62 73 62 55 53 53 56 59 58 59 41 47 48 49 48 47
79 66 44 34 34 35 34 33 33 32 32 35 34 37 44 46 33 29 39 47 63 49 54 54 48 51 47 56 54 35 65 66 59 50 54 48 69 76 59 54 57 52 53 56 56
85 72 59 47 41 38 34 30 31 32 34 33 34 41 48 43 55 51 42 54 55 60 56 53 51 55 41 45 46 59 54 75 62 56 50 46 75 69 64 65 64 59 60 56 52
82 82 68 57 44 37 35 29 26 28 37 36 37 40 43 31 52 57 46 55 53 49 61 50 44 46 49 50 55 59 76 80 65 62 53 55 64 66 51 61 65 70 71 66 63
71 69 60 52 45 38 31 26 27 27 28 31 37 40 41 41 45 60 44 53 52 57 51 46 42 48 51 51 77 71 75 71 77 59 64 64 72 62 42 49 54 58 61 62 60
59 52 52 48 40 34 30 28 28 28 32 32 37 48 44 37 44 51 47 50 55 53 48 44 46 50 40 45 52 54 62 75 60 51 59 78 75 71 68 56 59 61 63 65 65
42 45 40 36 35 26 30 44 41 31 32 30 31 40 46 45 50 51 42 55 58 56 35 40 65 49 40 53 59 61 62 72 54 45 54 61 74 73 73 64 58 65 67 68 63
31 31 29 23 21 34 43 37 31 27 44 40 37 44 48 49 56 63 46 40 49 50 42 45 44 35 38 55 55 63 66 61 62 50 56 62 77 76 69 68 67 60 59 59 61
18 19 16 16 20 32 26 31 26 25 56 51 43 39 43 40 41 35 35 36 48 61 44 38 36 43 46 55 46 59 56 55 53 53 68 51 74 63 63 66 60 60 58 54 44
17 11 5 15 9 14 27 25 26 28 52 32 32 26 40 28 35 26 27 42 50 54 42 48 39 48 59 43 36 49 37 42 45 56 57 57 65 60 34 54 54 48 41 37 36
38 9 7 15 17 26 27 25 29 35 53 25 29 38 36 38 33 29 26 25 33 39 29 40 42 49 44 43 48 27 31 38 45 52 72 65 60 59 53 51 42 38 37 35 34
41 7 16 18 20 22 25 28 29 35 30 32 36 33 37 42 37 28 27 46 57 60 47 38 44 41 39 23 18 24 35 51 61 65 70 51 60 58 46 36 30 31 32 32 34
49 4 25 23 20 20 24 26 31 30 31 36 37 34 30 31 25 24 22 36 43 45 42 48 38 42 42 39 42 38 41 48 65 68 64 47 64 56 33 21 20 23 26 32 35
48 30 27 24 27 25 25 36 27 27 29 32 33 27 26 28 25 25 18 26 35 41 47 46 37 34 39 36 33 41 48 38 52 50 55 55 53 44 35 34 31 29 33 37 35
53 26 32 34 31 29 29 36 33 24 24 28 30 28 25 29 29 29 16 25 14 18 39 32 29 37 40 41 37 36 38 45 46 59 64 55 55 59 42 36 38 39 39 36 35
37 34 30 36 31 32 25 27 21 24 27 28 27 30 27 31 30 25 24 20 25 20 38 29 23 23 19 31 26 31 40 42 46 46 57 57 56 47 35 33 30 31 35 35 37
34 32 27 29 33 26 25 27 28 28 28 28 29 28 29 25 30 29 25 23 22 21 19 27 22 21 27 19 12 23 32 37 46 53 50 49 54 39 23 21 22 29 30 32 34
36 29 28 29 32 26 25 24 31 31 32 33 33 33 30 26 29 28 26 26 25 29 28 24 22 24 31 30 26 17 18 17 44 47 46 53 48 24 16 23 29 32 31 33 33
35 33 30 29 28 33 20 22 33 36 38 36 36 34 31 31 34 28 26 22 22 26 30 31 29 31 32 35 20 23 23 15 27 35 43 44 35 29 23 26 25 27 33 34 36
38 32 31 34 29 35 37 34 34 36 36 37 35 39 35 31 29 29 23 24 24 23 27 31 31 35 38 30 27 28 31 27 26 38 45 44 53 18 15 28 27 28 32 37 37
42 38 41 42 38 40 30 29 34 35 37 33 37 29 30 36 33 28 20 23 27 20 22 28 31 36 45 39 41 49 41 35 32 34 55 59 58 35 33 32 31 34 37 38 37
42 38 35 43 41 36 35 37 35 39 31 37 38 29 29 32 35 35 28 31 23 21 20 24 28 32 40 34 42 57 44 29 27 28 18 21 40 42 40 36 39 42 39 37 36
Wind_Direction
344 339 335 330 326 322 318 315 310 306 301 292 283 270 272 273 266 255 249 254 248 262 254 245 242 245 248 243 246 239 241 243 242 245 250 257 257 258 267 260 270 266 281 281 296
348 343 337 333 330 327 324 320 316 313 308 298 288 274 272 269 265 252 248 251 249 248 251 236 235 237 242 242 245 236 238 242 244 248 253 263 254 257 258 256 261 260 276 279 279
349 345 342 339 337 336 334 327 326 323 316 303 291 275 272 272 261 251 245 242 245 244 246 238 234 234 238 241 241 237 237 237 238 248 263 261 253 254 258 256 255 258 261 265 271
354 351 348 345 340 338 336 337 329 326 304 306 285 264 263 267 245 278 230 231 240 237 240 236 229 232 236 238 238 239 238 242 247 263 261 257 254 256 255 259 267 267 259 269 271
359 357 359 358 357 347 350 360 346 344 309 308 274 271 270 258 251 281 232 226 236 232 233 234 227 230 236 238 242 240 242 248 247 264 258 257 254 257 256 259 269 264 266 269 273
9 8 11 12 21 46 12 9 10 352 336 312 277 266 262 257 273 266 243 228 232 225 228 233 232 233 241 244 239 251 245 258 250 255 257 257 257 258 258 261 259 262 264 267 270
18 23 30 38 36 10 11 11 357 331 326 292 288 269 262 260 286 267 244 232 223 219 223 231 234 235 245 244 248 257 242 249 250 253 257 263 253 248 256 261 257 260 263 265 266
28 37 46 57 64 35 23 29 3 319 302 303 280 267 259 268 257 243 244 234 237 234 231 230 236 238 249 250 248 242 250 240 247 248 257 254 251 253 255 256 259 260 262 265 268
36 42 52 56 66 72 62 80 86 254 279 280 272 262 262 288 237 226 235 226 230 223 224 235 236 238 240 241 240 241 240 242 246 247 253 251 254 257 260 254 259 260 260 264 267
40 45 51 56 64 77 95 118 106 69 316 307 280 265 260 242 232 217 223 220 221 213 215 225 230 232 236 238 234 237 240 243 245 248 247 250 253 261 259 261 263 264 264 266 269
42 44 49 56 65 73 86 100 107 121 170 220 231 231 230 234 205 206 211 214 216 210 211 223 226 220 208 234 246 245 244 245 249 251 250 249 254 255 259 263 264 266 266 266 269
38 42 49 57 72 86 92 86 104 129 139 180 207 206 199 194 189 196 209 210 205 210 206 222 233 236 237 242 244 248 248 242 257 250 254 256 255 256 256 258 264 267 267 268 271
35 40 50 65 83 86 83 100 116 140 119 129 155 167 171 174 172 185 217 215 203 209 218 228 237 234 236 241 243 246 247 243 247 255 262 263 259 256 256 259 263 268 271 272 273
20 31 51 73 99 86 102 119 148 151 112 113 135 169 176 174 184 198 207 212 214 212 222 240 243 239 242 242 243 245 249 248 247 252 254 254 256 259 256 256 261 266 270 272 276
329 356 76 94 159 121 104 157 161 141 112 150 145 197 185 187 181 195 205 214 213 210 231 237 234 233 237 244 245 254 244 247 251 253 262 255 258 261 254 256 260 264 267 273 277
303 4 125 107 130 102 112 150 142 133 114 158 163 173 186 194 188 199 217 239 225 219 240 237 236 236 242 249 250 251 242 250 255 256 253 252 255 257 255 259 259 261 266 271 276
299 268 95 125 140 133 138 161 146 131 160 148 149 162 165 171 187 216 259 206 201 203 221 237 236 243 244 243 246 240 234 245 246 247 250 260 253 260 261 259 256 259 263 272 279
298 154 89 130 191 188 194 178 145 161 157 165 157 162 179 186 214 231 216 212 215 225 222 224 235 236 244 252 249 247 245 249 245 246 249 258 255 262 266 261 253 261 273 281 283
293 53 67 99 177 230 222 128 187 194 189 190 184 181 181 187 199 211 253 228 230 222 226 231 245 252 255 264 255 247 248 260 257 259 252 256 261 269 265 264 262 265 278 281 288
342 49 25 20 358 241 222 132 181 248 253 233 220 215 210 195 196 194 295 236 256 267 237 252 265 260 252 250 263 262 258 251 258 248 250 257 260 261 257 260 262 265 276 285 294
358 5 25 356 351 276 3 281 274 269 278 277 272 253 252 235 237 260 264 255 246 256 230 254 276 268 288 263 255 260 255 258 260 265 256 258 263 279 263 262 262 269 282 291 297
2 351 16 25 10 53 6 285 274 277 287 296 299 297 300 315 277 273 290 297 287 286 291 279 287 278 280 302 301 279 268 259 259 261 267 273 271 287 279 266 269 282 291 297 302
353 348 342 348 356 32 327 308 280 287 294 299 304 305 309 313 309 304 311 315 307 287 286 288 299 285 276 287 290 299 278 269 265 270 269 266 274 289 280 277 278 284 293 300 306
358 334 321 328 329 308 12 322 282 287 291 301 305 306 311 307 308 309 312 329 319 306 297 292 285 289 283 284 304 284 270 259 271 272 272 271 277 278 283 283 281 290 295 300 304
357 336 316 304 317 297 282 294 291 290 294 298 302 284 292 311 317 313 323 313 316 317 306 296 289 285 285 303 309 301 283 267 254 271 273 276 268 274 271 281 289 292 297 297 303
343 331 303 290 298 287 306 315 298 301 299 312 303 324 312 301 307 323 338 321 307 316 318 303 297 292 281 289 290 283 288 286 275 273 269 269 268 282 279 289 290 291 295 297 304
9 345 317 288 290 293 292 290 294 291 309 301 291 320 317 314 310 315 318 307 328 323 312 310 309 299 287 301 295 283 283 276 281 283 254 213 271 280 283 281 282 284 290 295 302